| time (UTC) | temp C | wind direction | speed KPH | gust KPH | rain 1hr cm | rain 24hr cm | rain mn cm | humidity % | barometer mb |
| 20260502210018 | 18 | 360 | 0.0 | 0.0 | 0.00 | 0.00 | 0.00 | 26 | 1012.0 |
| 20260502204515 | 17 | 360 | 0.0 | 0.0 | 0.00 | 0.00 | 0.00 | 27 | 1012.2 |
| 20260502203015 | 18 | 360 | 0.0 | 0.0 | 0.00 | 0.00 | 0.00 | 30 | 1012.4 |
| 20260502201511 | 17 | 360 | 0.0 | 0.0 | 0.00 | 0.00 | 0.00 | 30 | 1012.6 |
| 20260502200010 | 17 | 360 | 0.0 | 0.0 | 0.00 | 0.00 | 0.00 | 28 | 1012.7 |
| 20260502194507 | 17 | 360 | 0.0 | 0.0 | 0.00 | 0.00 | 0.00 | 31 | 1012.8 |
| 20260502193005 | 17 | 360 | 0.0 | 1.6 | 0.00 | 0.00 | 0.00 | 28 | 1013.1 |
| 20260502191502 | 16 | 360 | 0.0 | 0.0 | 0.00 | 0.00 | 0.00 | 29 | 1013.3 |
| 20260502190100 | 16 | 360 | 0.0 | 0.0 | 0.00 | 0.00 | 0.00 | 27 | 1013.5 |
| 20260502184600 | 16 | 360 | 0.0 | 0.0 | 0.00 | 0.00 | 0.00 | 32 | 1013.7 |
| 20260502183106 | 16 | 360 | 0.0 | 0.0 | 0.00 | 0.00 | 0.00 | 32 | 1014.0 |
| 20260502181554 | 16 | 360 | 0.0 | 0.0 | 0.00 | 0.00 | 0.00 | 27 | 1014.2 |
| 20260502163043 | 14 | 360 | 0.0 | 0.0 | 0.00 | 0.00 | 0.00 | 35 | 1014.7 |
| 20260502161540 | 13 | 360 | 0.0 | 1.6 | 0.00 | 0.00 | 0.00 | 36 | 1014.7 |
| 20260502151523 | 12 | 360 | 0.0 | 0.0 | 0.00 | 0.00 | 0.00 | 36 | 1015.1 |
| 20260502123015 | 6 | 360 | 0.0 | 0.0 | 0.00 | 0.00 | 0.00 | 45 | 1015.2 |
| 20260502121513 | 6 | 360 | 0.0 | 0.0 | 0.00 | 0.00 | 0.00 | 42 | 1015.2 |
| 20260502114509 | 6 | 360 | 0.0 | 0.0 | 0.00 | 0.00 | 0.00 | 41 | 1015.2 |
| 20260502113006 | 6 | 360 | 0.0 | 0.0 | 0.00 | 0.00 | 0.00 | 42 | 1015.3 |
| 20260502111504 | 6 | 360 | 0.0 | 0.0 | 0.00 | 0.00 | 0.00 | 42 | 1015.3 |
| 20260502110003 | 6 | 360 | 0.0 | 0.0 | 0.00 | 0.00 | 0.00 | 40 | 1015.3 |
| 20260502104501 | 6 | 360 | 0.0 | 0.0 | 0.00 | 0.00 | 0.00 | 40 | 1015.2 |
| 20260502103059 | 6 | 360 | 0.0 | 0.0 | 0.00 | 0.00 | 0.00 | 39 | 1015.2 |
| 20260502101624 | 7 | 360 | 0.0 | 0.0 | 0.00 | 0.00 | 0.00 | 38 | 1015.0 |
| 20260502100104 | 6 | 360 | 0.0 | 0.0 | 0.00 | 0.00 | 0.00 | 38 | 1015.0 |
| 20260502090108 | 7 | 360 | 0.0 | 0.0 | 0.00 | 0.00 | 0.00 | 38 | 1014.9 |
| 20260502070056 | 8 | 360 | 0.0 | 0.0 | 0.00 | 0.00 | 0.00 | 34 | 1014.8 |
| 20260502064548 | 7 | 360 | 0.0 | 0.0 | 0.00 | 0.00 | 0.00 | 37 | 1014.8 |
| 20260502063040 | 8 | 360 | 0.0 | 0.0 | 0.00 | 0.00 | 0.00 | 35 | 1014.5 |
| 20260502061538 | 8 | 360 | 0.0 | 0.0 | 0.00 | 0.00 | 0.00 | 34 | 1014.6 |
| 20260502060034 | 9 | 360 | 0.0 | 0.0 | 0.00 | 0.00 | 0.00 | 32 | 1014.7 |
| 20260502054534 | 10 | 360 | 0.0 | 0.0 | 0.00 | 0.00 | 0.00 | 28 | 1014.7 |
| 20260502053032 | 10 | 360 | 0.0 | 0.0 | 0.00 | 0.00 | 0.00 | 28 | 1014.9 |
| 20260502051531 | 10 | 360 | 0.0 | 0.0 | 0.00 | 0.00 | 0.00 | 30 | 1015.0 |
| 20260502050033 | 9 | 360 | 0.0 | 0.0 | 0.00 | 0.00 | 0.00 | 32 | 1015.1 |
| 20260502044530 | 8 | 360 | 0.0 | 0.0 | 0.00 | 0.00 | 0.00 | 33 | 1015.2 |
| 20260502043031 | 10 | 360 | 0.0 | 0.0 | 0.00 | 0.00 | 0.00 | 32 | 1015.2 |
| 20260502041532 | 11 | 360 | 0.0 | 0.0 | 0.00 | 0.00 | 0.00 | 30 | 1015.2 |
| 20260502040030 | 11 | 360 | 0.0 | 0.0 | 0.00 | 0.00 | 0.00 | 28 | 1015.1 |
| 20260502034529 | 11 | 360 | 0.0 | 3.2 | 0.00 | 0.00 | 0.00 | 30 | 1015.0 |
| 20260502033025 | 11 | 360 | 0.0 | 0.0 | 0.00 | 0.00 | 0.00 | 30 | 1015.1 |
| 20260502031523 | 12 | 360 | 0.0 | 3.2 | 0.00 | 0.00 | 0.00 | 29 | 1014.9 |
| 20260502030022 | 11 | 360 | 0.0 | 0.0 | 0.00 | 0.00 | 0.00 | 30 | 1014.8 |
| 20260502024520 | 12 | 360 | 0.0 | 0.0 | 0.00 | 0.00 | 0.00 | 30 | 1014.7 |
| 20260502023019 | 13 | 360 | 0.0 | 0.0 | 0.00 | 0.00 | 0.00 | 30 | 1014.7 |
| 20260502021518 | 15 | 360 | 0.0 | 0.0 | 0.00 | 0.00 | 0.00 | 30 | 1014.9 |
| 20260502020018 | 16 | 360 | 0.0 | 0.0 | 0.00 | 0.00 | 0.00 | 22 | 1014.9 |
| 20260502014519 | 16 | 360 | 0.0 | 0.0 | 0.00 | 0.00 | 0.00 | 24 | 1015.0 |
| 20260502013017 | 16 | 360 | 0.0 | 0.0 | 0.00 | 0.00 | 0.00 | 23 | 1015.0 |
| 20260502011521 | 17 | 360 | 0.0 | 0.0 | 0.00 | 0.00 | 0.00 | 23 | 1015.3 |
| 20260502010015 | 17 | 360 | 0.0 | 0.0 | 0.00 | 0.00 | 0.00 | 21 | 1015.4 |
| 20260502004511 | 17 | 360 | 0.0 | 0.0 | 0.00 | 0.00 | 0.00 | 25 | 1015.4 |
| 20260502003009 | 17 | 360 | 0.0 | 0.0 | 0.00 | 0.00 | 0.00 | 27 | 1015.5 |
| 20260502001508 | 17 | 360 | 0.0 | 0.0 | 0.00 | 0.00 | 0.00 | 25 | 1015.6 |
| 20260502000007 | 17 | 360 | 0.0 | 0.0 | 0.00 | 0.00 | 0.00 | 25 | 1015.5 |
| 20260501234505 | 17 | 360 | 0.0 | 0.0 | 0.00 | 0.00 | 0.00 | 20 | 1015.6 |
| 20260501233011 | 17 | 360 | 0.0 | 0.0 | 0.00 | 0.00 | 0.00 | 22 | 1015.7 |
| 20260501231502 | 17 | 360 | 0.0 | 0.0 | 0.00 | 0.00 | 0.00 | 24 | 1015.8 |
| 20260501230005 | 17 | 360 | 0.0 | 0.0 | 0.00 | 0.00 | 0.00 | 23 | 1016.0 |
| 20260501224558 | 17 | 360 | 0.0 | 0.0 | 0.00 | 0.00 | 0.00 | 24 | 1016.2 |
| 20260501223056 | 17 | 29 | 0.0 | 0.0 | 0.00 | 0.00 | 0.00 | 20 | 1016.4 |
| 20260501221554 | 17 | 240 | 0.0 | 0.0 | 0.00 | 0.00 | 0.00 | 23 | 1016.7 |
| 20260501220135 | 17 | 35 | 0.0 | 3.2 | 0.00 | 0.00 | 0.00 | 24 | 1016.9 |
| 20260501214550 | 16 | 189 | 0.0 | 0.0 | 0.00 | 0.00 | 0.00 | 20 | 1017.1 |
| 20260501213058 | 16 | 355 | 0.0 | 0.0 | 0.00 | 0.00 | 0.00 | 23 | 1017.4 |
| 20260501211546 | 16 | 360 | 0.0 | 0.0 | 0.00 | 0.00 | 0.00 | 20 | 1017.5 |